• In Latvia
  • List of Countries
  • For 7 days
  • Water Temperature
  • Satellite Maps
  • Weather Map
  • Weather Widgets
  • user-avatar
    Login

    Hourly Weather Luanda

    Today, 14 December, Thursday

    Time Temperature Precipitation Wind Pressure Humidity
    00:00 +28°C° 0 mm 2 mps 754 mmHg 79%
    01:00 +28°C° 0 mm 2 mps 754 mmHg 81%
    02:00 +28°C° 0 mm 2 mps 754 mmHg 82%
    03:00 +28°C° 0 mm 2 mps 754 mmHg 83%
    04:00 +27°C° 0 mm 1 mps 754 mmHg 84%
    05:00 +28°C° 0.2 mm 1 mps 754 mmHg 83%
    06:00 +28°C° 0.2 mm 1 mps 754 mmHg 83%
    07:00 +28°C° 0 mm 1 mps 755 mmHg 83%
    08:00 +29°C° 0.1 mm 1 mps 755 mmHg 77%
    09:00 +30°C° 0.1 mm 1 mps 755 mmHg 71%
    10:00 +31°C° 0.1 mm 1 mps 754 mmHg 65%
    11:00 +32°C° 0 mm 2 mps 754 mmHg 61%
    12:00 +34°C° 0 mm 2 mps 753 mmHg 56%
    13:00 +35°C° 0 mm 3 mps 753 mmHg 51%
    14:00 +35°C° 0 mm 3 mps 752 mmHg 51%
    15:00 +35°C° 0 mm 3 mps 752 mmHg 51%
    16:00 +35°C° 0 mm 4 mps 751 mmHg 52%
    17:00 +33°C° 0 mm 4 mps 751 mmHg 59%
    18:00 +32°C° 0 mm 4 mps 752 mmHg 66%
    19:00 +29°C° 0 mm 4 mps 752 mmHg 73%
    20:00 +29°C° 0 mm 3 mps 752 mmHg 75%
    21:00 +28°C° 0 mm 3 mps 753 mmHg 78%
    22:00 +28°C° 0 mm 3 mps 753 mmHg 80%
    23:00 +28°C° 0 mm 3 mps 753 mmHg 82%

    Tomorrow, 15 December, Friday

    Time Temperature Precipitation Wind Pressure Humidity
    00:00 +28°C° 0 mm 3 mps 753 mmHg 83%
    01:00 +27°C° 0 mm 2 mps 753 mmHg 84%
    02:00 +27°C° 0 mm 2 mps 753 mmHg 85%
    03:00 +27°C° 0 mm 2 mps 753 mmHg 85%
    04:00 +27°C° 0 mm 2 mps 753 mmHg 86%
    05:00 +27°C° 0.1 mm 2 mps 753 mmHg 85%
    06:00 +28°C° 0.1 mm 2 mps 753 mmHg 83%
    07:00 +28°C° 0.1 mm 2 mps 754 mmHg 82%
    08:00 +30°C° 0.5 mm 2 mps 754 mmHg 74%
    09:00 +31°C° 0.5 mm 2 mps 754 mmHg 67%
    10:00 +34°C° 0.5 mm 2 mps 754 mmHg 60%
    11:00 +34°C° 0.6 mm 2 mps 753 mmHg 58%
    12:00 +35°C° 0.6 mm 3 mps 753 mmHg 55%
    13:00 +36°C° 0.6 mm 4 mps 752 mmHg 53%
    14:00 +35°C° 0.1 mm 4 mps 752 mmHg 53%
    15:00 +35°C° 0.1 mm 4 mps 751 mmHg 54%
    16:00 +35°C° 0.1 mm 4 mps 751 mmHg 54%
    17:00 +33°C° 0 mm 4 mps 751 mmHg 59%
    18:00 +32°C° 0 mm 4 mps 751 mmHg 64%
    19:00 +30°C° 0 mm 4 mps 752 mmHg 70%
    20:00 +29°C° 0.1 mm 4 mps 753 mmHg 72%
    21:00 +29°C° 0.1 mm 4 mps 753 mmHg 74%
    22:00 +29°C° 0.1 mm 4 mps 754 mmHg 77%
    23:00 +28°C° 0.7 mm 4 mps 754 mmHg 80%

    Day after tomorrow, 16 December, Saturday

    Time Temperature Precipitation Wind Pressure Humidity
    00:00 +28°C° 0.7 mm 4 mps 753 mmHg 84%
    01:00 +27°C° 0.7 mm 4 mps 753 mmHg 87%
    02:00 +27°C° 1.1 mm 4 mps 753 mmHg 89%
    03:00 +27°C° 1.1 mm 4 mps 753 mmHg 90%
    04:00 +27°C° 1.1 mm 4 mps 752 mmHg 91%
    05:00 +27°C° 1 mm 3 mps 753 mmHg 91%
    06:00 +27°C° 1 mm 3 mps 753 mmHg 91%
    07:00 +27°C° 1 mm 3 mps 753 mmHg 90%
    08:00 +27°C° 0.5 mm 3 mps 754 mmHg 88%
    09:00 +27°C° 0.5 mm 3 mps 754 mmHg 85%
    10:00 +28°C° 0.5 mm 2 mps 755 mmHg 83%
    11:00 +28°C° 0.1 mm 2 mps 754 mmHg 79%
    12:00 +29°C° 0.1 mm 1 mps 753 mmHg 76%
    13:00 +30°C° 0.1 mm 1 mps 753 mmHg 73%
    14:00 +30°C° 0.1 mm 1 mps 752 mmHg 74%
    15:00 +29°C° 0.1 mm 1 mps 752 mmHg 75%
    16:00 +29°C° 0.1 mm 1 mps 751 mmHg 77%
    17:00 +29°C° 0 mm 1 mps 751 mmHg 79%
    18:00 +28°C° 0 mm 1 mps 752 mmHg 82%
    19:00 +28°C° 0 mm 1 mps 752 mmHg 85%
    20:00 +28°C° 0 mm 1 mps 753 mmHg 86%
    21:00 +27°C° 0 mm 2 mps 753 mmHg 87%
    22:00 +27°C° 0 mm 2 mps 754 mmHg 87%
    23:00 +27°C° 0 mm 2 mps 753 mmHg 88%

    17 December, Sunday

    Time Temperature Precipitation Wind Pressure Humidity
    00:00 +27°C° 0 mm 2 mps 753 mmHg 88%
    01:00 +27°C° 0 mm 2 mps 753 mmHg 89%
    02:00 +27°C° 0.1 mm 2 mps 753 mmHg 89%
    03:00 +27°C° 0.1 mm 2 mps 752 mmHg 90%
    04:00 +26°C° 0.1 mm 2 mps 752 mmHg 90%
    05:00 +26°C° 0.1 mm 2 mps 752 mmHg 90%
    06:00 +26°C° 0.1 mm 2 mps 753 mmHg 89%
    07:00 +26°C° 0.1 mm 2 mps 753 mmHg 89%
    08:00 +27°C° 0.1 mm 2 mps 753 mmHg 84%
    09:00 +28°C° 0.1 mm 2 mps 753 mmHg 79%
    10:00 +29°C° 0.1 mm 2 mps 754 mmHg 75%
    11:00 +30°C° 0 mm 2 mps 753 mmHg 72%
    12:00 +30°C° 0 mm 2 mps 752 mmHg 70%
    13:00 +31°C° 0 mm 3 mps 752 mmHg 67%
    14:00 +30°C° 0 mm 3 mps 751 mmHg 69%
    15:00 +30°C° 0 mm 4 mps 751 mmHg 71%
    16:00 +30°C° 0 mm 5 mps 751 mmHg 72%
    17:00 +29°C° 0 mm 4 mps 751 mmHg 76%
    18:00 +28°C° 0 mm 4 mps 752 mmHg 80%
    19:00 +27°C° 0 mm 4 mps 752 mmHg 83%
    20:00 +27°C° 0 mm 3 mps 753 mmHg 85%
    21:00 +27°C° 0 mm 3 mps 753 mmHg 86%
    22:00 +27°C° 0 mm 3 mps 754 mmHg 88%
    23:00 +26°C° 0 mm 3 mps 754 mmHg 89%

    18 December, Monday

    Time Temperature Precipitation Wind Pressure Humidity
    00:00 +26°C° 0 mm 2 mps 753 mmHg 89%
    01:00 +26°C° 0 mm 2 mps 753 mmHg 90%
    02:00 +26°C° 0.1 mm 2 mps 753 mmHg 91%
    03:00 +26°C° 0.1 mm 2 mps 753 mmHg 91%
    04:00 +26°C° 0.1 mm 2 mps 753 mmHg 92%
    05:00 +26°C° 0 mm 2 mps 753 mmHg 90%
    06:00 +26°C° 0 mm 2 mps 754 mmHg 89%
    07:00 +27°C° 0 mm 2 mps 754 mmHg 87%
    08:00 +28°C° 0 mm 2 mps 754 mmHg 79%
    09:00 +29°C° 0 mm 2 mps 754 mmHg 72%
    10:00 +31°C° 0 mm 2 mps 754 mmHg 64%
    11:00 +31°C° 0 mm 2 mps 754 mmHg 63%
    12:00 +33°C° 0 mm 3 mps 753 mmHg 61%
    13:00 +33°C° 0 mm 3 mps 752 mmHg 59%
    14:00 +33°C° 0 mm 3 mps 752 mmHg 58%
    15:00 +33°C° 0 mm 4 mps 751 mmHg 58%
    16:00 +33°C° 0 mm 4 mps 751 mmHg 57%
    17:00 +32°C° 0 mm 4 mps 751 mmHg 63%
    18:00 +29°C° 0 mm 4 mps 752 mmHg 70%
    19:00 +28°C° 0 mm 3 mps 752 mmHg 76%
    20:00 +28°C° 0 mm 3 mps 753 mmHg 77%
    21:00 +27°C° 0 mm 3 mps 753 mmHg 79%
    22:00 +27°C° 0 mm 3 mps 754 mmHg 80%
    23:00 +27°C° 0 mm 3 mps 753 mmHg 81%

    19 December, Tuesday

    Time Temperature Precipitation Wind Pressure Humidity
    00:00 +27°C° 0 mm 3 mps 753 mmHg 82%
    01:00 +27°C° 0 mm 2 mps 753 mmHg 83%
    02:00 +26°C° 0 mm 2 mps 753 mmHg 84%
    03:00 +26°C° 0 mm 2 mps 752 mmHg 85%
    04:00 +26°C° 0 mm 2 mps 752 mmHg 87%
    05:00 +26°C° 0 mm 2 mps 753 mmHg 85%
    06:00 +26°C° 0 mm 1 mps 753 mmHg 84%
    07:00 +27°C° 0 mm 1 mps 753 mmHg 82%
    08:00 +28°C° 0 mm 1 mps 754 mmHg 75%
    09:00 +30°C° 0 mm 1 mps 754 mmHg 68%
    10:00 +31°C° 0 mm 1 mps 754 mmHg 61%
    11:00 +32°C° 0 mm 2 mps 753 mmHg 57%
    12:00 +34°C° 0 mm 3 mps 752 mmHg 54%
    13:00 +35°C° 0 mm 4 mps 752 mmHg 51%
    14:00 +34°C° 0 mm 4 mps 751 mmHg 54%
    15:00 +33°C° 0 mm 4 mps 751 mmHg 57%
    16:00 +32°C° 0 mm 5 mps 751 mmHg 60%
    17:00 +30°C° 0 mm 4 mps 751 mmHg 65%
    18:00 +29°C° 0 mm 4 mps 752 mmHg 70%
    19:00 +28°C° 0 mm 4 mps 752 mmHg 75%
    20:00 +27°C° 0 mm 3 mps 753 mmHg 76%
    21:00 +27°C° 0 mm 3 mps 753 mmHg 78%
    22:00 +27°C° 0 mm 2 mps 754 mmHg 80%
    23:00 +27°C° 0 mm 2 mps 753 mmHg 80%
    Show more